This is the latest recevied weather packets stored in our database for station/object KI5NXU. If no packets are shown the sender has not sent any weather packets the latest 10 day(s).
| Time | Temp. | Humidity | Pressure | Rain* | Wind** | Luminosity | Snow |
|---|---|---|---|---|---|---|---|
| 1777901297 | 17.78° C | 77% | 1010.9 hPa | 0 mm | - | 135 W/m² | - |
| 1777900994 | 17.22° C | 78% | 1011.1 hPa | 0 mm | - | 145 W/m² | - |
| 1777900692 | 16.67° C | 79% | 1011.1 hPa | 0 mm | - | 104 W/m² | - |
| 1777900388 | 16.11° C | 81% | 1011 hPa | 0 mm | - | 114 W/m² | - |
| 1777900086 | 15.56° C | 82% | 1010.9 hPa | 0 mm | - | 76 W/m² | - |
| 1777899781 | 15.56° C | 83% | 1010.9 hPa | 0 mm | - | 80 W/m² | - |
| 1777899478 | 15.56° C | 82% | 1010.8 hPa | 0 mm | - | 75 W/m² | - |
| 1777899176 | 15° C | 82% | 1010.9 hPa | 0 mm | - | 71 W/m² | - |
| 1777898874 | 15° C | 82% | 1010.7 hPa | 0 mm | - | 65 W/m² | - |
| 1777898571 | 15° C | 83% | 1010.7 hPa | 0 mm | - | 58 W/m² | - |
| 1777898268 | 14.44° C | 83% | 1011 hPa | 0 mm | - | 52 W/m² | - |
| 1777897965 | 14.44° C | 83% | 1010.9 hPa | 0 mm | - | 41 W/m² | - |
| 1777897661 | 13.89° C | 83% | 1010.9 hPa | 0 mm | - | 41 W/m² | - |
| 1777897358 | 13.89° C | 83% | 1010.8 hPa | 0 mm | - | 37 W/m² | - |
| 1777897054 | 13.89° C | 83% | 1010.8 hPa | 0 mm | - | 29 W/m² | - |
| 1777896751 | 13.33° C | 84% | 1010.7 hPa | 0 mm | - | 21 W/m² | - |
| 1777896448 | 13.33° C | 84% | 1010.7 hPa | 0 mm | - | 15 W/m² | - |
| 1777896145 | 13.33° C | 84% | 1010.3 hPa | 0 mm | - | 11 W/m² | - |
| 1777895843 | 13.33° C | 83% | 1010.6 hPa | 0 mm | - | 7 W/m² | - |
| 1777895540 | 13.33° C | 83% | 1010.5 hPa | 0 mm | - | 5 W/m² | - |
| 1777895238 | 13.33° C | 83% | 1010.5 hPa | 0 mm | - | 3 W/m² | - |
| 1777894935 | 13.33° C | 83% | 1010.6 hPa | 0 mm | - | 1 W/m² | - |
| 1777894633 | 13.33° C | 83% | 1010.4 hPa | 0 mm | - | 0 W/m² | - |
| 1777894329 | 13.33° C | 82% | 1010.5 hPa | 0 mm | - | 0 W/m² | - |
| 1777894027 | 13.33° C | 82% | 1010.5 hPa | 0 mm | - | 0 W/m² | - |
* Rain latest hour (hover to see other rain measurements)
** Current wind speed in m/s (hover to see current wind gust speed)